Regional Weather Roundup
Issued by NWS

Home | Current Version | Previous Version | Graphics & Text | Print | Product List | Glossary On
Versions: 1 2 3 4 5 6 7 8 9 10 11 12 13 14 15 16 17 18 19 20 21 22 23 24 25 26 27 28 29 30 31 32 33 34 35 36 37 38 39 40 41 42 43 44 45 46 47 48 49 50
000
ASUS43 KBIS 020202
RWRND

NORTH DAKOTA REGIONAL WEATHER ROUNDUP
NATIONAL WEATHER SERVICE BISMARCK ND
900 PM CDT WED JUL 01 2015

NOTE: "FAIR" INDICATES FEW OR NO CLOUDS BELOW 12,000 FEET WITH NO
SIGNIFICANT WEATHER AND/OR OBSTRUCTIONS TO VISIBILITY.


NDZ001>003-009>011-017-020300-
NORTHWEST NORTH DAKOTA

CITY           SKY/WX    TMP DP  RH WIND       PRES   REMARKS
WILLISTON      CLOUDY    73  58  59 NW3       29.96S HAZE
MINOT          MOCLDY    68  64  87 NE5       29.93S FOG
MINOT AFB      MOCLDY    71  70  99 NE5       29.92F
$$

NDZ018>021-031>035-040>046-020300-
SOUTHWEST NORTH DAKOTA

CITY           SKY/WX    TMP DP  RH WIND       PRES   REMARKS
BISMARCK       MOCLDY    73  67  81 SE5       29.94S
DICKINSON      CLOUDY    70  62  76 SE3       29.95F
GARRISON         N/A     72  64  76 CALM      29.94S
HETTINGER ARPT MOCLDY    70  62  76 N5        30.00R
$$

NDZ004>008-012>016-024-026-027-054-020300-
NORTHEAST NORTH DAKOTA

CITY           SKY/WX    TMP DP  RH WIND       PRES   REMARKS
GRAND FORKS    PTCLDY    70  62  76 S6        29.93R HAZE
GRND FRKS AFB  PTCLDY    70  62  76 S6        29.94R
DEVILS LAKE    MOCLDY    72  61  68 SE5       29.92F
$$

NDZ022-023-025-028>030-036>039-047>053-020300-
SOUTHEAST NORTH DAKOTA

CITY           SKY/WX    TMP DP  RH WIND       PRES   REMARKS
FARGO          CLEAR     69  56  62 S6        29.95R
JAMESTOWN      CLEAR     71  64  78 SE6       29.95R
$$



USA.gov is the U.S. government's official web portal to all federal, state and local government web resources and services.